Flag for Netherlands Weather past 2 weeks in Almere, Netherlands

Now
45 °F

Sprinkles. Broken clouds.


Feels Like: 36 °F
Forecast: 35 / 50 °F
Wind: 21 mph from West

Location: Amsterdam Schiphol Airport

Current Time: Mar 27, 2015 at 1:32:56 PM

Latest Report: Mar 27, 2015 at 12:55 PM


Visibility: N/A

Pressure: 30.04 "Hg

Humidity: 81%

Dew point: 39 °F

Location of AlmereLocation

Historic Weather in Almere — Graph

°F

Almere temperature yesterday

Maximum temperature yesterday: 46 °F (at 8:25 PM)
Minimum temperature yesterday: 32 °F (at 2:55 AM)
Average temperature yesterday: 40 °F

Past Weeks' High & Low Weather Summary

 TemperatureHumidityPressure
High59 °F (Mar 17, 1:25 PM)100% (Mar 17, 4:55 AM)30.45 "Hg (Mar 17, 4:55 AM)
Low28 °F (Mar 23, 6:55 AM)38% (Mar 12, 2:25 PM)29.62 "Hg (Mar 26, 2:55 PM)
Average43 °F82%30.15 "Hg
* Reported Mar 12 12:25 PM — Mar 27 12:25 PM, Almere, Weather by CustomWeather, © 2015

Note: Actual official high and low records may vary slightly from our data, if they occured in-between our weather recording intervals... More about our weather records

Advertising

Almere weather history for previous 24 hours

 ConditionsComfort  
Time TempWeatherWind HumidityBarometerVisibility
12:25 PM
Fri, Mar 27
46 °FBroken clouds.22 mph82%30.04 "HgN/A
11:55 AM46 °FScattered showers. Partly sunny.22 mph82%30.01 "HgN/A
11:25 AM45 °FSprinkles. Broken clouds.23 mph87%30.01 "HgN/A
10:55 AM45 °FScattered showers. Broken clouds.23 mph81%30.01 "HgN/A
10:25 AM45 °FSprinkles. Partly sunny.22 mph81%29.98 "HgN/A
9:55 AM45 °FScattered showers. Broken clouds.24 mph81%29.98 "HgN/A
9:25 AM45 °FScattered showers. Partly sunny.21 mph81%29.95 "HgN/A
8:55 AM45 °FScattered showers. Partly sunny.23 mph81%29.95 "HgN/A
8:25 AM43 °FSprinkles. Broken clouds.14 mph87%29.92 "HgN/A
7:55 AM43 °FSprinkles. Broken clouds.14 mph87%29.92 "HgN/A
7:25 AM43 °FScattered showers. Scattered clouds.17 mph87%29.89 "HgN/A
6:55 AM43 °FSprinkles. Broken clouds.23 mph81%29.89 "HgN/A
6:25 AM43 °FScattered showers. Partly cloudy.21 mph87%29.86 "HgN/A
5:55 AM43 °FSprinkles. Partly cloudy.20 mph87%29.86 "HgN/A
5:25 AM43 °FSprinkles. Passing clouds.17 mph87%29.83 "HgN/A
4:55 AM43 °FRain showers. Partly cloudy.20 mph87%29.83 "Hg4 mi
3:55 AM43 °FScattered showers. Passing clouds.22 mph81%29.80 "HgN/A
3:25 AM45 °FPassing clouds.20 mph81%29.80 "HgN/A
2:55 AM45 °FPassing clouds.21 mph81%29.77 "HgN/A
2:25 AM45 °FPassing clouds.20 mph81%29.77 "HgN/A
1:55 AM45 °FSprinkles. Passing clouds.18 mph81%29.77 "HgN/A
1:25 AM45 °FSprinkles. Passing clouds.18 mph81%29.77 "HgN/A
12:55 AM45 °FScattered showers. Passing clouds.18 mph81%29.77 "HgN/A
12:25 AM45 °FSprinkles. Passing clouds.20 mph81%29.74 "HgN/A
11:55 PM
Thu, Mar 26
45 °FScattered showers. Passing clouds.18 mph76%29.74 "HgN/A
11:25 PM45 °FPassing clouds.17 mph81%29.71 "HgN/A
10:55 PM45 °FPassing clouds.14 mph87%29.71 "HgN/A
10:25 PM45 °FPassing clouds.13 mph87%29.71 "HgN/A
9:55 PM45 °FPassing clouds.14 mph87%29.68 "HgN/A
9:25 PM45 °FSprinkles. Partly cloudy.17 mph87%29.68 "Hg5 mi
8:55 PM45 °FSprinkles. Passing clouds.20 mph87%29.68 "HgN/A
8:25 PM46 °FPassing clouds.13 mph87%29.65 "HgN/A
7:55 PM45 °FSprinkles. Passing clouds.10 mph93%29.65 "Hg6 mi
7:25 PM43 °FPartly cloudy.9 mph100%29.65 "Hg4 mi
6:55 PM43 °FDrizzle. Broken clouds.12 mph93%29.62 "Hg4 mi
6:25 PM41 °FDrizzle. Fog.12 mph100%29.62 "Hg2 mi
5:55 PM41 °FDrizzle. Fog.15 mph93%29.62 "Hg2 mi
5:25 PM41 °FDrizzle. Broken clouds.18 mph93%29.62 "Hg2 mi
4:55 PM41 °FDrizzle. Broken clouds.20 mph93%29.62 "Hg3 mi
4:25 PM41 °FDrizzle. Broken clouds.18 mph93%29.62 "Hg4 mi
3:55 PM41 °FDrizzle. Broken clouds.17 mph87%29.62 "Hg4 mi
3:25 PM41 °FDrizzle. Broken clouds.21 mph87%29.62 "Hg4 mi
2:55 PM41 °FDrizzle. Broken clouds.22 mph87%29.62 "HgN/A
2:25 PM41 °FLight rain. Cloudy.18 mph87%29.65 "Hg6 mi
1:55 PM43 °FLight rain. Mostly cloudy.21 mph81%29.65 "Hg6 mi
1:25 PM45 °FDrizzle. Partly sunny.22 mph71%29.65 "HgN/A
Weather by CustomWeather, © 2015

See weather overviewHow to use our weather pages